Year,Month,Day,Hour,Minute,Value (Times are PST for temperature in C)
2008,07,04,00,00,11.90
2008,07,04,00,01,11.90
2008,07,04,00,02,11.90
2008,07,04,00,03,11.90
2008,07,04,00,04,11.90
2008,07,04,00,05,12.00
2008,07,04,00,06,12.00
2008,07,04,00,07,12.00
2008,07,04,00,08,12.00
2008,07,04,00,09,12.00
2008,07,04,00,10,12.10
2008,07,04,00,11,12.10
2008,07,04,00,12,12.10
2008,07,04,00,13,12.10
2008,07,04,00,14,12.10
2008,07,04,00,15,12.10
2008,07,04,00,16,12.10
2008,07,04,00,17,12.10
2008,07,04,00,18,12.10
2008,07,04,00,19,12.10
2008,07,04,00,20,12.10
2008,07,04,00,21,12.10
2008,07,04,00,22,12.10
2008,07,04,00,23,12.20
2008,07,04,00,24,12.20
2008,07,04,00,25,12.20
2008,07,04,00,26,12.20
2008,07,04,00,27,12.30
2008,07,04,00,28,12.30
2008,07,04,00,29,12.30
2008,07,04,00,30,12.40
2008,07,04,00,31,12.40
2008,07,04,00,32,12.30
2008,07,04,00,33,12.40
2008,07,04,00,34,12.30
2008,07,04,00,35,12.30
2008,07,04,00,36,12.40
2008,07,04,00,37,12.40
2008,07,04,00,38,12.40
2008,07,04,00,39,12.40
2008,07,04,00,40,12.40
2008,07,04,00,41,12.40
2008,07,04,00,42,12.40
2008,07,04,00,43,12.40
2008,07,04,00,44,12.40
2008,07,04,00,45,12.40
2008,07,04,00,46,12.40
2008,07,04,00,47,12.40
2008,07,04,00,48,12.40
2008,07,04,00,49,12.40
2008,07,04,00,50,12.40
2008,07,04,00,51,12.40
2008,07,04,00,52,12.40
2008,07,04,00,53,12.40
2008,07,04,00,54,12.40
2008,07,04,00,55,12.40
2008,07,04,00,56,12.40
2008,07,04,00,57,12.40
2008,07,04,00,58,12.50
2008,07,04,00,59,12.50
2008,07,04,01,00,12.50
2008,07,04,01,01,12.50
2008,07,04,01,02,12.50
2008,07,04,01,03,12.50
2008,07,04,01,04,12.50
2008,07,04,01,05,12.40
2008,07,04,01,06,12.40
2008,07,04,01,07,12.40
2008,07,04,01,08,12.30
2008,07,04,01,09,12.30
2008,07,04,01,10,12.30
2008,07,04,01,11,12.20
2008,07,04,01,12,12.20
2008,07,04,01,13,12.20
2008,07,04,01,14,12.20
2008,07,04,01,15,12.20
2008,07,04,01,16,12.20
2008,07,04,01,17,12.20
2008,07,04,01,18,12.20
2008,07,04,01,19,12.20
2008,07,04,01,20,12.20
2008,07,04,01,21,12.20
2008,07,04,01,22,12.20
2008,07,04,01,23,12.20
2008,07,04,01,24,12.20
2008,07,04,01,25,12.20
2008,07,04,01,26,12.20
2008,07,04,01,27,12.20
2008,07,04,01,28,12.20
2008,07,04,01,29,12.20
2008,07,04,01,30,12.20
2008,07,04,01,31,12.20
2008,07,04,01,32,12.20
2008,07,04,01,33,12.20
2008,07,04,01,34,12.20
2008,07,04,01,35,12.20
2008,07,04,01,36,12.20
2008,07,04,01,37,12.30
2008,07,04,01,38,12.30
2008,07,04,01,39,12.30
2008,07,04,01,40,12.30
2008,07,04,01,41,12.30
2008,07,04,01,42,12.30
2008,07,04,01,43,12.40
2008,07,04,01,44,12.40
2008,07,04,01,45,12.40
2008,07,04,01,46,12.40
2008,07,04,01,47,12.40
2008,07,04,01,48,12.40
2008,07,04,01,49,12.50
2008,07,04,01,50,12.50
2008,07,04,01,51,12.50
2008,07,04,01,52,12.50
2008,07,04,01,53,12.40
2008,07,04,01,54,12.30
2008,07,04,01,55,12.30
2008,07,04,01,56,12.20
2008,07,04,01,57,12.20
2008,07,04,01,58,12.10
2008,07,04,01,59,12.00
2008,07,04,02,00,12.00
2008,07,04,02,01,11.90
2008,07,04,02,02,11.80
2008,07,04,02,03,11.80
2008,07,04,02,04,11.80
2008,07,04,02,05,11.80
2008,07,04,02,06,11.80
2008,07,04,02,07,11.80
2008,07,04,02,08,11.90
2008,07,04,02,09,11.90
2008,07,04,02,10,11.90
2008,07,04,02,11,11.90
2008,07,04,02,12,12.00
2008,07,04,02,13,12.00
2008,07,04,02,14,12.10
2008,07,04,02,15,12.10
2008,07,04,02,16,12.10
2008,07,04,02,17,12.10
2008,07,04,02,18,12.10
2008,07,04,02,19,12.10
2008,07,04,02,20,12.10
2008,07,04,02,21,12.20
2008,07,04,02,22,12.20
2008,07,04,02,23,12.20
2008,07,04,02,24,12.20
2008,07,04,02,25,12.20
2008,07,04,02,26,12.30
2008,07,04,02,27,12.30
2008,07,04,02,28,12.30
2008,07,04,02,29,12.30
2008,07,04,02,30,12.30
2008,07,04,02,31,12.40
2008,07,04,02,32,12.40
2008,07,04,02,33,12.40
2008,07,04,02,34,12.40
2008,07,04,02,35,12.40
2008,07,04,02,36,12.40
2008,07,04,02,37,12.40
2008,07,04,02,38,12.40
2008,07,04,02,39,12.40
2008,07,04,02,40,12.40
2008,07,04,02,41,12.30
2008,07,04,02,42,12.30
2008,07,04,02,43,12.20
2008,07,04,02,44,12.10
2008,07,04,02,45,12.10
2008,07,04,02,46,12.00
2008,07,04,02,47,12.00
2008,07,04,02,48,11.90
2008,07,04,02,49,11.90
2008,07,04,02,50,11.90
2008,07,04,02,51,11.90
2008,07,04,02,52,11.80
2008,07,04,02,53,11.80
2008,07,04,02,54,11.80
2008,07,04,02,55,11.80
2008,07,04,02,56,11.80
2008,07,04,02,57,11.80
2008,07,04,02,58,11.80
2008,07,04,02,59,11.80
2008,07,04,03,00,11.80
2008,07,04,03,01,11.80
2008,07,04,03,02,11.80
2008,07,04,03,03,11.80
2008,07,04,03,04,11.80
2008,07,04,03,05,11.90
2008,07,04,03,06,11.90
2008,07,04,03,07,11.90
2008,07,04,03,08,12.00
2008,07,04,03,09,12.10
2008,07,04,03,10,12.10
2008,07,04,03,11,12.20
2008,07,04,03,12,12.20
2008,07,04,03,13,12.30
2008,07,04,03,14,12.30
2008,07,04,03,15,12.30
2008,07,04,03,16,12.30
2008,07,04,03,17,12.30
2008,07,04,03,18,12.30
2008,07,04,03,19,12.20
2008,07,04,03,20,12.20
2008,07,04,03,21,12.20
2008,07,04,03,22,12.20
2008,07,04,03,23,12.20
2008,07,04,03,24,12.20
2008,07,04,03,25,12.20
2008,07,04,03,26,12.20
2008,07,04,03,27,12.20
2008,07,04,03,28,12.20
2008,07,04,03,29,12.20
2008,07,04,03,30,12.20
2008,07,04,03,31,12.20
2008,07,04,03,32,12.20
2008,07,04,03,33,12.30
2008,07,04,03,34,12.30
2008,07,04,03,35,12.30
2008,07,04,03,36,12.40
2008,07,04,03,37,12.40
2008,07,04,03,38,12.40
2008,07,04,03,39,12.50
2008,07,04,03,40,12.50
2008,07,04,03,41,12.50
2008,07,04,03,42,12.50
2008,07,04,03,43,12.50
2008,07,04,03,44,12.40
2008,07,04,03,45,12.40
2008,07,04,03,46,12.40
2008,07,04,03,47,12.30
2008,07,04,03,48,12.30
2008,07,04,03,49,12.30
2008,07,04,03,50,12.40
2008,07,04,03,51,12.40
2008,07,04,03,52,12.40
2008,07,04,03,53,12.40
2008,07,04,03,54,12.40
2008,07,04,03,55,12.30
2008,07,04,03,56,12.30
2008,07,04,03,57,12.30
2008,07,04,03,58,12.30
2008,07,04,03,59,12.30
2008,07,04,04,00,12.40
2008,07,04,04,01,12.40
2008,07,04,04,02,12.40
2008,07,04,04,03,12.40
2008,07,04,04,04,12.40
2008,07,04,04,05,12.40
2008,07,04,04,06,12.40
2008,07,04,04,07,12.40
2008,07,04,04,08,12.40
2008,07,04,04,09,12.40
2008,07,04,04,10,12.40
2008,07,04,04,11,12.40
2008,07,04,04,12,12.40
2008,07,04,04,13,12.40
2008,07,04,04,14,12.50
2008,07,04,04,15,12.50
2008,07,04,04,16,12.60
2008,07,04,04,17,12.60
2008,07,04,04,18,12.70
2008,07,04,04,19,12.70
2008,07,04,04,20,12.70
2008,07,04,04,21,12.80
2008,07,04,04,22,12.80
2008,07,04,04,23,12.80
2008,07,04,04,24,12.80
2008,07,04,04,25,12.90
2008,07,04,04,26,12.90
2008,07,04,04,27,13.00
2008,07,04,04,28,13.00
2008,07,04,04,29,13.00
2008,07,04,04,30,13.10
2008,07,04,04,31,13.10
2008,07,04,04,32,13.10
2008,07,04,04,33,13.10
2008,07,04,04,34,13.10
2008,07,04,04,35,13.20
2008,07,04,04,36,13.20
2008,07,04,04,37,13.20
2008,07,04,04,38,13.10
2008,07,04,04,39,13.20
2008,07,04,04,40,13.20
2008,07,04,04,41,13.20
2008,07,04,04,42,13.20
2008,07,04,04,43,13.20
2008,07,04,04,44,13.20
2008,07,04,04,45,13.20
2008,07,04,04,46,13.20
2008,07,04,04,47,13.20
2008,07,04,04,48,13.20
2008,07,04,04,49,13.20
2008,07,04,04,50,13.20
2008,07,04,04,51,13.20
2008,07,04,04,52,13.20
2008,07,04,04,53,13.20
2008,07,04,04,54,13.20
2008,07,04,04,55,13.20
2008,07,04,04,56,13.20
2008,07,04,04,57,13.20
2008,07,04,04,58,13.20
2008,07,04,04,59,13.20
2008,07,04,05,00,13.20
2008,07,04,05,01,13.30
2008,07,04,05,02,13.30
2008,07,04,05,03,13.30
2008,07,04,05,04,13.30
2008,07,04,05,05,13.30
2008,07,04,05,06,13.30
2008,07,04,05,07,13.40
2008,07,04,05,08,13.40
2008,07,04,05,09,13.40
2008,07,04,05,10,13.50
2008,07,04,05,11,13.50
2008,07,04,05,12,13.60
2008,07,04,05,13,13.60
2008,07,04,05,14,13.60
2008,07,04,05,15,13.70
2008,07,04,05,16,13.70
2008,07,04,05,17,13.70
2008,07,04,05,18,13.70
2008,07,04,05,19,13.70
2008,07,04,05,20,13.60
2008,07,04,05,21,13.60
2008,07,04,05,22,13.50
2008,07,04,05,23,13.50
2008,07,04,05,24,13.40
2008,07,04,05,25,13.40
2008,07,04,05,26,13.30
2008,07,04,05,27,13.30
2008,07,04,05,28,13.20
2008,07,04,05,29,13.20
2008,07,04,05,30,13.10
2008,07,04,05,31,13.10
2008,07,04,05,32,13.10
2008,07,04,05,33,13.20
2008,07,04,05,34,13.20
2008,07,04,05,35,13.20
2008,07,04,05,36,13.10
2008,07,04,05,37,13.10
2008,07,04,05,38,13.00
2008,07,04,05,39,12.90
2008,07,04,05,40,12.80
2008,07,04,05,41,12.80
2008,07,04,05,42,12.70
2008,07,04,05,43,12.70
2008,07,04,05,44,12.60
2008,07,04,05,45,12.60
2008,07,04,05,46,12.60
2008,07,04,05,47,12.50
2008,07,04,05,48,12.50
2008,07,04,05,49,12.40
2008,07,04,05,50,12.40
2008,07,04,05,51,12.40
2008,07,04,05,52,12.40
2008,07,04,05,53,12.40
2008,07,04,05,54,12.40
2008,07,04,05,55,12.40
2008,07,04,05,56,12.40
2008,07,04,05,57,12.50
2008,07,04,05,58,12.50
2008,07,04,05,59,12.50
2008,07,04,06,00,12.60
2008,07,04,06,01,12.60
2008,07,04,06,02,12.60
2008,07,04,06,03,12.60
2008,07,04,06,04,12.70
2008,07,04,06,05,12.70
2008,07,04,06,06,12.70
2008,07,04,06,07,12.70
2008,07,04,06,08,12.70
2008,07,04,06,09,12.70
2008,07,04,06,10,12.70
2008,07,04,06,11,12.70
2008,07,04,06,12,12.70
2008,07,04,06,13,12.70
2008,07,04,06,14,12.70
2008,07,04,06,15,12.70
2008,07,04,06,16,12.80
2008,07,04,06,17,12.80
2008,07,04,06,18,12.80
2008,07,04,06,19,12.80
2008,07,04,06,20,12.70
2008,07,04,06,21,12.70
2008,07,04,06,22,12.70
2008,07,04,06,23,12.70
2008,07,04,06,24,12.70
2008,07,04,06,25,12.70
2008,07,04,06,26,12.70
2008,07,04,06,27,12.70
2008,07,04,06,28,12.70
2008,07,04,06,29,12.70
2008,07,04,06,30,12.70
2008,07,04,06,31,12.70
2008,07,04,06,32,12.70
2008,07,04,06,33,12.70
2008,07,04,06,34,12.80
2008,07,04,06,35,12.80
2008,07,04,06,36,12.80
2008,07,04,06,37,12.80
2008,07,04,06,38,12.90
2008,07,04,06,39,12.90
2008,07,04,06,40,12.90
2008,07,04,06,41,13.00
2008,07,04,06,42,13.00
2008,07,04,06,43,13.10
2008,07,04,06,44,13.10
2008,07,04,06,45,13.10
2008,07,04,06,46,13.10
2008,07,04,06,47,13.10
2008,07,04,06,48,13.10
2008,07,04,06,49,13.10
2008,07,04,06,50,13.10
2008,07,04,06,51,13.10
2008,07,04,06,52,13.10
2008,07,04,06,53,13.10
2008,07,04,06,54,13.10
2008,07,04,06,55,13.10
2008,07,04,06,56,13.10
2008,07,04,06,57,13.10
2008,07,04,06,58,13.10
2008,07,04,06,59,13.10
2008,07,04,07,00,13.20
2008,07,04,07,01,13.20
2008,07,04,07,02,13.20
2008,07,04,07,03,13.20
2008,07,04,07,04,13.30
2008,07,04,07,05,13.30
2008,07,04,07,06,13.30
2008,07,04,07,07,13.30
2008,07,04,07,08,13.30
2008,07,04,07,09,13.30
2008,07,04,07,10,13.20
2008,07,04,07,11,13.20
2008,07,04,07,12,13.20
2008,07,04,07,13,13.20
2008,07,04,07,14,13.20
2008,07,04,07,15,13.20
2008,07,04,07,16,13.20
2008,07,04,07,17,13.10
2008,07,04,07,18,13.10
2008,07,04,07,19,13.10
2008,07,04,07,20,13.10
2008,07,04,07,21,13.10
2008,07,04,07,22,13.10
2008,07,04,07,23,13.10
2008,07,04,07,24,13.10
2008,07,04,07,25,13.10
2008,07,04,07,26,13.00
2008,07,04,07,27,13.00
2008,07,04,07,28,12.90
2008,07,04,07,29,12.90
2008,07,04,07,30,12.90
2008,07,04,07,31,12.90
2008,07,04,07,32,12.90
2008,07,04,07,33,12.90
2008,07,04,07,34,12.90
2008,07,04,07,35,12.90
2008,07,04,07,36,12.90
2008,07,04,07,37,12.90
2008,07,04,07,38,13.00
2008,07,04,07,39,13.00
2008,07,04,07,40,13.00
2008,07,04,07,41,13.00
2008,07,04,07,42,13.10
2008,07,04,07,43,13.10
2008,07,04,07,44,13.10
2008,07,04,07,45,13.10
2008,07,04,07,46,13.20
2008,07,04,07,47,13.30
2008,07,04,07,48,13.30
2008,07,04,07,49,13.40
2008,07,04,07,50,13.50
2008,07,04,07,51,13.60
2008,07,04,07,52,13.60
2008,07,04,07,53,13.70
2008,07,04,07,54,13.80
2008,07,04,07,55,13.80
2008,07,04,07,56,13.90
2008,07,04,07,57,13.90
2008,07,04,07,58,14.00
2008,07,04,07,59,14.00
2008,07,04,08,00,14.10
2008,07,04,08,01,14.10
2008,07,04,08,02,14.10
2008,07,04,08,03,14.20
2008,07,04,08,04,14.20
2008,07,04,08,05,14.20
2008,07,04,08,06,14.30
2008,07,04,08,07,14.30
2008,07,04,08,08,14.30
2008,07,04,08,09,14.30
2008,07,04,08,10,14.30
2008,07,04,08,11,14.30
2008,07,04,08,12,14.30
2008,07,04,08,13,14.30
2008,07,04,08,14,14.30
2008,07,04,08,15,14.30
2008,07,04,08,16,14.20
2008,07,04,08,17,14.20
2008,07,04,08,18,14.20
2008,07,04,08,19,14.20
2008,07,04,08,20,14.20
2008,07,04,08,21,14.20
2008,07,04,08,22,14.20
2008,07,04,08,23,14.20
2008,07,04,08,24,14.20
2008,07,04,08,25,14.20
2008,07,04,08,26,14.20
2008,07,04,08,27,14.10
2008,07,04,08,28,14.10
2008,07,04,08,29,14.10
2008,07,04,08,30,14.10
2008,07,04,08,31,14.00
2008,07,04,08,32,13.90
2008,07,04,08,33,13.90
2008,07,04,08,34,13.90
2008,07,04,08,35,13.80
2008,07,04,08,36,13.80
2008,07,04,08,37,13.70
2008,07,04,08,38,13.70
2008,07,04,08,39,13.70
2008,07,04,08,40,13.70
2008,07,04,08,41,13.70
2008,07,04,08,42,13.70
2008,07,04,08,43,13.70
2008,07,04,08,44,13.70
2008,07,04,08,45,13.70
2008,07,04,08,46,13.70
2008,07,04,08,47,13.60
2008,07,04,08,48,13.60
2008,07,04,08,49,13.60
2008,07,04,08,50,13.60
2008,07,04,08,51,13.60
2008,07,04,08,52,13.60
2008,07,04,08,53,13.60
2008,07,04,08,54,13.50
2008,07,04,08,55,13.50
2008,07,04,08,56,13.50
2008,07,04,08,57,13.50
2008,07,04,08,58,13.50
2008,07,04,08,59,13.50
2008,07,04,09,00,13.50
2008,07,04,09,01,13.50
2008,07,04,09,02,13.50
2008,07,04,09,03,13.40
2008,07,04,09,04,13.40
2008,07,04,09,05,13.40
2008,07,04,09,06,13.40
2008,07,04,09,07,13.40
2008,07,04,09,08,13.30
2008,07,04,09,09,13.30
2008,07,04,09,10,13.30
2008,07,04,09,11,13.30
2008,07,04,09,12,13.30
2008,07,04,09,13,13.30
2008,07,04,09,14,13.40
2008,07,04,09,15,13.40
2008,07,04,09,16,13.40
2008,07,04,09,17,13.40
2008,07,04,09,18,13.50
2008,07,04,09,19,13.50
2008,07,04,09,20,13.60
2008,07,04,09,21,13.60
2008,07,04,09,22,13.60
2008,07,04,09,23,13.60
2008,07,04,09,24,13.60
2008,07,04,09,25,13.60
2008,07,04,09,26,13.50
2008,07,04,09,27,13.50
2008,07,04,09,28,13.40
2008,07,04,09,29,13.30
2008,07,04,09,30,13.20
2008,07,04,09,31,13.10
2008,07,04,09,32,13.00
2008,07,04,09,33,13.00
2008,07,04,09,34,12.90
2008,07,04,09,35,12.80
2008,07,04,09,36,12.80
2008,07,04,09,37,12.80
2008,07,04,09,38,12.70
2008,07,04,09,39,12.70
2008,07,04,09,40,12.60
2008,07,04,09,41,12.60
2008,07,04,09,42,12.60
2008,07,04,09,43,12.70
2008,07,04,09,44,12.70
2008,07,04,09,45,12.70
2008,07,04,09,46,12.70
2008,07,04,09,47,12.70
2008,07,04,09,48,12.70
2008,07,04,09,49,12.80
2008,07,04,09,50,12.80
2008,07,04,09,51,12.80
2008,07,04,09,52,12.80
2008,07,04,09,53,12.80
2008,07,04,09,54,12.80
2008,07,04,09,55,12.90
2008,07,04,09,56,13.00
2008,07,04,09,57,13.00
2008,07,04,09,58,13.10
2008,07,04,09,59,13.20
2008,07,04,10,00,13.20
2008,07,04,10,01,13.20
2008,07,04,10,02,13.20
2008,07,04,10,03,13.10
2008,07,04,10,04,13.10
2008,07,04,10,05,13.10
2008,07,04,10,06,13.20
2008,07,04,10,07,13.20
2008,07,04,10,08,13.30
2008,07,04,10,09,13.30
2008,07,04,10,10,13.30
2008,07,04,10,11,13.30
2008,07,04,10,12,13.30
2008,07,04,10,13,13.40
2008,07,04,10,14,13.40
2008,07,04,10,15,13.40
2008,07,04,10,16,13.40
2008,07,04,10,17,13.40
2008,07,04,10,18,13.50
2008,07,04,10,19,13.50
2008,07,04,10,20,13.60
2008,07,04,10,21,13.60
2008,07,04,10,22,13.60
2008,07,04,10,23,13.60
2008,07,04,10,24,13.60
2008,07,04,10,25,13.60
2008,07,04,10,26,13.60
2008,07,04,10,27,13.60
2008,07,04,10,28,13.60
2008,07,04,10,29,13.70
2008,07,04,10,30,13.70
2008,07,04,10,31,13.70
2008,07,04,10,32,13.70
2008,07,04,10,33,13.70
2008,07,04,10,34,13.70
2008,07,04,10,35,13.80
2008,07,04,10,36,13.80
2008,07,04,10,37,13.90
2008,07,04,10,38,13.90
2008,07,04,10,39,14.00
2008,07,04,10,40,14.00
2008,07,04,10,41,14.10
2008,07,04,10,42,14.10
2008,07,04,10,43,14.20
2008,07,04,10,44,14.20
2008,07,04,10,45,14.30
2008,07,04,10,46,14.20
2008,07,04,10,47,14.10
2008,07,04,10,48,14.00
2008,07,04,10,49,13.80
2008,07,04,10,50,13.80
2008,07,04,10,51,13.70
2008,07,04,10,52,13.60
2008,07,04,10,53,13.50
2008,07,04,10,54,13.40
2008,07,04,10,55,13.40
2008,07,04,10,56,13.30
2008,07,04,10,57,13.20
2008,07,04,10,58,13.10
2008,07,04,10,59,13.10
2008,07,04,11,00,13.00
2008,07,04,11,01,13.00
2008,07,04,11,02,13.00
2008,07,04,11,03,13.00
2008,07,04,11,04,13.00
2008,07,04,11,05,13.00
2008,07,04,11,06,13.00
2008,07,04,11,07,13.00
2008,07,04,11,08,13.00
2008,07,04,11,09,13.10
2008,07,04,11,10,13.10
2008,07,04,11,11,13.20
2008,07,04,11,12,13.20
2008,07,04,11,13,13.30
2008,07,04,11,14,13.30
2008,07,04,11,15,13.30
2008,07,04,11,16,13.30
2008,07,04,11,17,13.30
2008,07,04,11,18,13.40
2008,07,04,11,19,13.40
2008,07,04,11,20,13.40
2008,07,04,11,21,13.30
2008,07,04,11,22,13.30
2008,07,04,11,23,13.30
2008,07,04,11,24,13.30
2008,07,04,11,25,13.30
2008,07,04,11,26,13.30
2008,07,04,11,27,13.30
2008,07,04,11,28,13.40
2008,07,04,11,29,13.40
2008,07,04,11,30,13.40
2008,07,04,11,31,13.40
2008,07,04,11,32,13.40
2008,07,04,11,33,13.50
2008,07,04,11,34,13.50
2008,07,04,11,35,13.50
2008,07,04,11,36,13.50
2008,07,04,11,37,13.50
2008,07,04,11,38,13.50
2008,07,04,11,39,13.50
2008,07,04,11,40,13.50
2008,07,04,11,41,13.50
2008,07,04,11,42,13.50
2008,07,04,11,43,13.60
2008,07,04,11,44,13.60
2008,07,04,11,45,13.70
2008,07,04,11,46,13.70
2008,07,04,11,47,13.80
2008,07,04,11,48,13.80
2008,07,04,11,49,13.80
2008,07,04,11,50,13.90
2008,07,04,11,51,13.90
2008,07,04,11,52,14.00
2008,07,04,11,53,14.20
2008,07,04,11,54,14.30
2008,07,04,11,55,14.40
2008,07,04,11,56,14.50
2008,07,04,11,57,14.60
2008,07,04,11,58,14.70
2008,07,04,11,59,14.80
2008,07,04,12,00,14.90
2008,07,04,12,01,15.00
2008,07,04,12,02,15.00
2008,07,04,12,03,15.00
2008,07,04,12,04,15.00
2008,07,04,12,05,15.00
2008,07,04,12,06,15.00
2008,07,04,12,07,14.90
2008,07,04,12,08,14.80
2008,07,04,12,09,14.80
2008,07,04,12,10,14.70
2008,07,04,12,11,14.70
2008,07,04,12,12,14.60
2008,07,04,12,13,14.60
2008,07,04,12,14,14.50
2008,07,04,12,15,14.40
2008,07,04,12,16,14.40
2008,07,04,12,17,14.40
2008,07,04,12,18,14.40
2008,07,04,12,19,14.50
2008,07,04,12,20,14.60
2008,07,04,12,21,14.60
2008,07,04,12,22,14.60
2008,07,04,12,23,14.70
2008,07,04,12,24,14.90
2008,07,04,12,25,15.00
2008,07,04,12,26,15.00
2008,07,04,12,27,15.10
2008,07,04,12,28,15.20
2008,07,04,12,29,15.30
2008,07,04,12,30,15.40
2008,07,04,12,31,15.50
2008,07,04,12,32,15.60
2008,07,04,12,33,15.60
2008,07,04,12,34,15.70
2008,07,04,12,35,15.70
2008,07,04,12,36,15.70
2008,07,04,12,37,15.70
2008,07,04,12,38,15.80
2008,07,04,12,39,15.90
2008,07,04,12,40,16.00
2008,07,04,12,41,16.00
2008,07,04,12,42,16.10
2008,07,04,12,43,16.20
2008,07,04,12,44,16.30
2008,07,04,12,45,16.30
2008,07,04,12,46,16.40
2008,07,04,12,47,16.40
2008,07,04,12,48,16.40
2008,07,04,12,49,16.50
2008,07,04,12,50,16.60
2008,07,04,12,51,16.70
2008,07,04,12,52,16.70
2008,07,04,12,53,16.80
2008,07,04,12,54,16.90
2008,07,04,12,55,17.00
2008,07,04,12,56,17.10
2008,07,04,12,57,17.20
2008,07,04,12,58,17.20
2008,07,04,12,59,17.30
2008,07,04,13,00,17.40
2008,07,04,13,01,17.40
2008,07,04,13,02,17.50
2008,07,04,13,03,17.50
2008,07,04,13,04,17.60
2008,07,04,13,05,17.60
2008,07,04,13,06,17.60
2008,07,04,13,07,17.60
2008,07,04,13,08,17.60
2008,07,04,13,09,17.60
2008,07,04,13,10,17.50
2008,07,04,13,11,17.50
2008,07,04,13,12,17.60
2008,07,04,13,13,17.60
2008,07,04,13,14,17.70
2008,07,04,13,15,17.70
2008,07,04,13,16,17.70
2008,07,04,13,17,17.70
2008,07,04,13,18,17.70
2008,07,04,13,19,17.70
2008,07,04,13,20,17.70
2008,07,04,13,21,17.70
2008,07,04,13,22,17.70
2008,07,04,13,23,17.80
2008,07,04,13,24,17.80
2008,07,04,13,25,17.80
2008,07,04,13,26,17.90
2008,07,04,13,27,17.90
2008,07,04,13,28,18.00
2008,07,04,13,29,18.00
2008,07,04,13,30,17.90
2008,07,04,13,31,17.90
2008,07,04,13,32,17.90
2008,07,04,13,33,18.00
2008,07,04,13,34,18.00
2008,07,04,13,35,18.10
2008,07,04,13,36,18.10
2008,07,04,13,37,18.20
2008,07,04,13,38,18.20
2008,07,04,13,39,18.10
2008,07,04,13,40,18.10
2008,07,04,13,41,18.10
2008,07,04,13,42,18.10
2008,07,04,13,43,18.20
2008,07,04,13,44,18.30
2008,07,04,13,45,18.30
2008,07,04,13,46,18.30
2008,07,04,13,47,18.40
2008,07,04,13,48,18.50
2008,07,04,13,49,18.60
2008,07,04,13,50,18.60
2008,07,04,13,51,18.70
2008,07,04,13,52,18.70
2008,07,04,13,53,18.70
2008,07,04,13,54,18.70
2008,07,04,13,55,18.80
2008,07,04,13,56,18.90
2008,07,04,13,57,18.90
2008,07,04,13,58,18.90
2008,07,04,13,59,19.00
2008,07,04,14,00,19.00
2008,07,04,14,01,19.00
2008,07,04,14,02,18.90
2008,07,04,14,03,19.00
2008,07,04,14,04,19.00
2008,07,04,14,05,19.30
2008,07,04,14,06,19.50
2008,07,04,14,07,19.60
2008,07,04,14,08,19.70
2008,07,04,14,09,19.80
2008,07,04,14,10,19.90
2008,07,04,14,11,20.00
2008,07,04,14,12,20.10
2008,07,04,14,13,20.20
2008,07,04,14,14,20.30
2008,07,04,14,15,20.30
2008,07,04,14,16,20.20
2008,07,04,14,17,20.30
2008,07,04,14,18,20.30
2008,07,04,14,19,20.40
2008,07,04,14,20,20.60
2008,07,04,14,21,20.60
2008,07,04,14,22,20.50
2008,07,04,14,23,20.50
2008,07,04,14,24,20.40
2008,07,04,14,25,20.30
2008,07,04,14,26,20.30
2008,07,04,14,27,20.40
2008,07,04,14,28,20.40
2008,07,04,14,29,20.40
2008,07,04,14,30,20.50
2008,07,04,14,31,20.60
2008,07,04,14,32,20.60
2008,07,04,14,33,20.60
2008,07,04,14,34,20.70
2008,07,04,14,35,20.70
2008,07,04,14,36,20.60
2008,07,04,14,37,20.50
2008,07,04,14,38,20.40
2008,07,04,14,39,20.50
2008,07,04,14,40,20.40
2008,07,04,14,41,20.30
2008,07,04,14,42,20.30
2008,07,04,14,43,20.40
2008,07,04,14,44,20.40
2008,07,04,14,45,20.30
2008,07,04,14,46,20.10
2008,07,04,14,47,20.00
2008,07,04,14,48,19.90
2008,07,04,14,49,20.00
2008,07,04,14,50,20.00
2008,07,04,14,51,20.10
2008,07,04,14,52,20.20
2008,07,04,14,53,20.30
2008,07,04,14,54,20.40
2008,07,04,14,55,20.40
2008,07,04,14,56,20.20
2008,07,04,14,57,20.10
2008,07,04,14,58,20.10
2008,07,04,14,59,20.10
2008,07,04,15,00,20.00
2008,07,04,15,01,19.90
2008,07,04,15,02,19.90
2008,07,04,15,03,20.00
2008,07,04,15,04,20.00
2008,07,04,15,05,20.00
2008,07,04,15,06,20.00
2008,07,04,15,07,20.10
2008,07,04,15,08,20.20
2008,07,04,15,09,20.20
2008,07,04,15,10,20.30
2008,07,04,15,11,20.30
2008,07,04,15,12,20.30
2008,07,04,15,13,20.30
2008,07,04,15,14,20.30
2008,07,04,15,15,20.30
2008,07,04,15,16,20.10
2008,07,04,15,17,20.10
2008,07,04,15,18,20.10
2008,07,04,15,19,20.10
2008,07,04,15,20,20.20
2008,07,04,15,21,20.20
2008,07,04,15,22,20.20
2008,07,04,15,23,20.10
2008,07,04,15,24,20.10
2008,07,04,15,25,20.00
2008,07,04,15,26,20.10
2008,07,04,15,27,20.20
2008,07,04,15,28,20.20
2008,07,04,15,29,20.20
2008,07,04,15,30,20.20
2008,07,04,15,31,20.10
2008,07,04,15,32,20.10
2008,07,04,15,33,20.10
2008,07,04,15,34,20.10
2008,07,04,15,35,20.10
2008,07,04,15,36,20.20
2008,07,04,15,37,20.30
2008,07,04,15,38,20.50
2008,07,04,15,39,20.60
2008,07,04,15,40,20.70
2008,07,04,15,41,20.60
2008,07,04,15,42,20.60
2008,07,04,15,43,20.50
2008,07,04,15,44,20.40
2008,07,04,15,45,20.40
2008,07,04,15,46,20.40
2008,07,04,15,47,20.40
2008,07,04,15,48,20.50
2008,07,04,15,49,20.50
2008,07,04,15,50,20.50
2008,07,04,15,51,20.50
2008,07,04,15,52,20.60
2008,07,04,15,53,20.70
2008,07,04,15,54,20.60
2008,07,04,15,55,20.60
2008,07,04,15,56,20.60
2008,07,04,15,57,20.60
2008,07,04,15,58,20.70
2008,07,04,15,59,20.80
2008,07,04,16,00,20.90
2008,07,04,16,01,20.90
2008,07,04,16,02,20.90
2008,07,04,16,03,20.80
2008,07,04,16,04,20.80
2008,07,04,16,05,20.70
2008,07,04,16,06,20.70
2008,07,04,16,07,20.70
2008,07,04,16,08,20.70
2008,07,04,16,09,20.70
2008,07,04,16,10,20.70
2008,07,04,16,11,20.70
2008,07,04,16,12,20.80
2008,07,04,16,13,21.00
2008,07,04,16,14,21.10
2008,07,04,16,15,21.10
2008,07,04,16,16,21.20
2008,07,04,16,17,21.20
2008,07,04,16,18,21.20
2008,07,04,16,19,21.20
2008,07,04,16,20,21.30
2008,07,04,16,21,21.30
2008,07,04,16,22,21.40
2008,07,04,16,23,21.40
2008,07,04,16,24,21.60
2008,07,04,16,25,21.70
2008,07,04,16,26,21.80
2008,07,04,16,27,21.80
2008,07,04,16,28,21.90
2008,07,04,16,29,22.00
2008,07,04,16,30,22.20
2008,07,04,16,31,22.20
2008,07,04,16,32,22.00
2008,07,04,16,33,21.90
2008,07,04,16,34,21.80
2008,07,04,16,35,21.80
2008,07,04,16,36,21.60
2008,07,04,16,37,21.50
2008,07,04,16,38,21.50
2008,07,04,16,39,21.70
2008,07,04,16,40,21.70
2008,07,04,16,41,21.80
2008,07,04,16,42,21.70
2008,07,04,16,43,21.70
2008,07,04,16,44,21.70
2008,07,04,16,45,21.70
2008,07,04,16,46,21.70
2008,07,04,16,47,21.80
2008,07,04,16,48,21.80
2008,07,04,16,49,21.80
2008,07,04,16,50,21.70
2008,07,04,16,51,21.60
2008,07,04,16,52,21.60
2008,07,04,16,53,21.60
2008,07,04,16,54,21.60
2008,07,04,16,55,21.50
2008,07,04,16,56,21.50
2008,07,04,16,57,21.40
2008,07,04,16,58,21.30
2008,07,04,16,59,21.30
2008,07,04,17,00,21.30
2008,07,04,17,01,21.20
2008,07,04,17,02,21.20
2008,07,04,17,03,21.20
2008,07,04,17,04,21.10
2008,07,04,17,05,21.10
2008,07,04,17,06,21.20
2008,07,04,17,07,21.20
2008,07,04,17,08,21.20
2008,07,04,17,09,21.20
2008,07,04,17,10,21.30
2008,07,04,17,11,21.40
2008,07,04,17,12,21.40
2008,07,04,17,13,21.40
2008,07,04,17,14,21.50
2008,07,04,17,15,21.60
2008,07,04,17,16,21.70
2008,07,04,17,17,21.80
2008,07,04,17,18,21.90
2008,07,04,17,19,22.00